Location: Mexico
(19.4000°N, 99.1500°W)
Time: 14:06:23
(UTC-06:00)

ISS - Pass Details

Date: 25 March 2017
Orbit: 399 x 409 km, 51.6° (Epoch: 24 March)

Event Time Altitude Azimuth Distance (km) Brightness Sun altitude
Exits shadow 05:08:03 18° 359° (N) 1,080 -1.6 -21.5°
Maximum altitude 05:09:50 29° 49° (NE) 767 -1.9 -21.1°
Drops below altitude 10° 05:12:45 10° 112° (ESE) 1,461 -0.2 -20.4°
Sets 05:14:59 0° 123° (ESE) 2,319 0.7 -19.9°
